Location: Laterina
(43.5167°N, 11.7167°E)
Time: 00:00:50
(UTC+00:00)

USA 238 - Visible Passes

Search period start: 24 January 2021 00:00
Search period end: 03 February 2021 00:00
Orbit: 996 x 1216 km, 63.4° (Epoch: 22 January)

Date Brightness Start Highest point End Pass type
(mag) Time Alt. Az. Time Alt. Az. Time Alt. Az.
24 Jan 4.8 04:27:33 10° S 04:33:34 41° ESE 04:39:51 10° NE visible
25 Jan 5.5 03:43:55 10° SSE 03:49:07 26° ESE 03:54:28 10° ENE visible
25 Jan 3.6 05:32:56 10° SW 05:39:27 66° NW 05:46:19 10° NNE visible
26 Jan 6.1 03:01:15 10° SE 03:04:47 15° ESE 03:08:23 10° ENE visible
26 Jan 3.6 04:48:04 10° SSW 04:54:36 84° SE 05:01:29 10° NE visible
27 Jan 4.2 04:03:48 11° SSW 04:09:55 55° ESE 04:16:31 10° NE visible
27 Jan 4.2 05:55:02 10° WSW 06:01:07 37° NW 06:07:30 10° NNE visible
28 Jan 5.0 03:22:08 22° SSE 03:25:22 34° ESE 03:31:21 10° NE visible
28 Jan 3.8 05:09:41 10° WSW 05:16:01 53° NW 05:22:46 10° NNE visible
29 Jan 5.5 02:39:59 20° ESE 02:40:58 21° ESE 02:45:45 10° ENE visible
29 Jan 3.5 04:27:30 29° SW 04:31:05 77° NW 04:37:59 10° NE visible
30 Jan 6.2 01:57:32 12° E 01:57:32 12° E 01:58:56 10° E visible
30 Jan 3.7 03:45:02 57° S 03:46:18 71° ESE 03:53:06 10° NE visible
30 Jan 4.5 05:32:32 12° W 05:37:51 31° NW 05:43:55 10° NNE visible
31 Jan 4.5 03:02:21 44° E 03:02:21 44° E 03:08:05 10° NE visible
31 Jan 4.0 04:49:49 29° W 04:52:39 42° NW 04:59:11 10° NNE visible
01 Feb 5.5 02:19:30 23° E 02:19:30 23° E 02:22:46 10° NE visible
01 Feb 3.6 04:06:59 59° WNW 04:07:37 61° NW 04:14:27 10° NNE visible
01 Feb 5.0 05:55:10 10° WNW 06:00:03 21° NNW 06:05:08 10° NNE visible
02 Feb 6.3 01:36:33 11° ENE 01:36:33 11° ENE 01:36:53 10° ENE visible
02 Feb 3.9 03:24:00 62° NE 03:24:00 62° NE 03:29:39 10° NE visible
02 Feb 4.7 05:11:28 19° WNW 05:14:37 26° NNW 05:20:21 10° NNE visible
